Time,TemperatureF,DewpointF,PressureIn,WindDirection,WindDirectionDegrees,WindSpeedMPH,WindSpeedGustMPH,Humidity,HourlyPrecipIn,Conditions,Clouds,dailyrainin,SoftwareType,DateUTC
2013-02-12 00:01:00,28.0,17.0,-100.00,NW,310,11.0,12.0,65,-99.99,,,-99.99,,2013-02-12 06:01:00,
2013-02-12 00:12:00,28.0,17.0,-100.00,NW,310,11.0,12.0,65,-99.99,,,-99.99,,2013-02-12 06:12:00,
2013-02-12 00:21:00,28.0,17.0,-100.00,NW,310,5.0,6.0,65,-99.99,,,-99.99,,2013-02-12 06:21:00,
2013-02-12 00:32:00,28.0,17.0,-100.00,NW,310,5.0,6.0,65,-99.99,,,-99.99,,2013-02-12 06:32:00,
2013-02-12 00:42:00,28.0,17.0,-100.00,NW,310,5.0,6.0,65,-99.99,,,-99.99,,2013-02-12 06:42:00,
2013-02-12 00:52:00,28.0,17.0,-100.00,WNW,290,11.0,12.0,65,-99.99,,,-99.99,,2013-02-12 06:52:00,
2013-02-12 01:01:00,28.0,17.0,-100.00,WNW,290,11.0,12.0,65,-99.99,,,-99.99,,2013-02-12 07:01:00,
2013-02-12 01:11:00,28.0,17.0,-100.00,NW,305,8.0,10.0,65,-99.99,,,-99.99,,2013-02-12 07:11:00,
2013-02-12 01:21:00,28.0,17.0,-100.00,NW,305,8.0,10.0,65,-99.99,,,-99.99,,2013-02-12 07:21:00,
2013-02-12 01:31:00,28.0,18.0,-100.00,NW,305,7.0,9.0,66,-99.99,,,-99.99,,2013-02-12 07:31:00,
2013-02-12 01:41:00,28.0,18.0,-100.00,NW,305,7.0,9.0,66,-99.99,,,-99.99,,2013-02-12 07:41:00,
2013-02-12 01:51:00,28.0,18.0,-100.00,WNW,285,11.0,12.0,66,-99.99,,,-99.99,,2013-02-12 07:51:00,
2013-02-12 02:01:00,28.0,18.0,-100.00,WNW,285,11.0,12.0,66,-99.99,,,-99.99,,2013-02-12 08:01:00,
2013-02-12 02:11:00,28.0,17.0,-100.00,WNW,290,11.0,14.0,65,-99.99,,,-99.99,,2013-02-12 08:11:00,
2013-02-12 02:21:00,28.0,17.0,-100.00,West,280,11.0,12.0,65,-99.99,,,-99.99,,2013-02-12 08:21:00,
2013-02-12 02:31:00,27.0,17.0,-100.00,West,275,7.0,9.0,66,-99.99,,,-99.99,,2013-02-12 08:31:00,
2013-02-12 02:41:00,27.0,17.0,-100.00,West,275,7.0,9.0,66,-99.99,,,-99.99,,2013-02-12 08:41:00,
2013-02-12 02:52:00,27.0,17.0,-100.00,West,275,9.0,11.0,65,-99.99,,,-99.99,,2013-02-12 08:52:00,
2013-02-12 03:01:00,27.0,17.0,-100.00,West,275,9.0,11.0,65,-99.99,,,-99.99,,2013-02-12 09:01:00,
2013-02-12 03:11:00,27.0,17.0,-100.00,WNW,285,8.0,10.0,65,-99.99,,,-99.99,,2013-02-12 09:11:00,
2013-02-12 03:21:00,27.0,17.0,-100.00,WNW,285,8.0,10.0,65,-99.99,,,-99.99,,2013-02-12 09:21:00,
2013-02-12 03:32:00,27.0,17.0,-100.00,WNW,285,8.0,12.0,65,-99.99,,,-99.99,,2013-02-12 09:32:00,
2013-02-12 03:42:00,27.0,17.0,-100.00,WNW,285,8.0,12.0,65,-99.99,,,-99.99,,2013-02-12 09:42:00,
2013-02-12 03:51:00,27.0,16.0,-100.00,WNW,295,11.0,14.0,64,-99.99,,,-99.99,,2013-02-12 09:51:00,
2013-02-12 04:01:00,27.0,16.0,-100.00,WNW,295,11.0,14.0,64,-99.99,,,-99.99,,2013-02-12 10:01:00,
2013-02-12 04:11:00,26.0,16.0,-100.00,NW,305,7.0,8.0,65,-99.99,,,-99.99,,2013-02-12 10:11:00,
2013-02-12 04:21:00,26.0,16.0,-100.00,NW,305,7.0,8.0,65,-99.99,,,-99.99,,2013-02-12 10:21:00,
2013-02-12 04:31:00,26.0,16.0,-100.00,NW,315,6.0,6.0,67,-99.99,,,-99.99,,2013-02-12 10:31:00,
2013-02-12 04:43:00,26.0,16.0,-100.00,NW,315,6.0,6.0,67,-99.99,,,-99.99,,2013-02-12 10:43:00,
2013-02-12 04:51:00,25.0,16.0,-100.00,NW,315,4.0,5.0,68,-99.99,,,-99.99,,2013-02-12 10:51:00,
2013-02-12 05:01:00,25.0,16.0,-100.00,NW,315,4.0,5.0,68,-99.99,,,-99.99,,2013-02-12 11:01:00,
2013-02-12 05:11:00,25.0,16.0,-100.00,NW,320,1.0,1.0,69,-99.99,,,-99.99,,2013-02-12 11:11:00,
2013-02-12 05:21:00,25.0,16.0,-100.00,NW,320,1.0,1.0,69,-99.99,,,-99.99,,2013-02-12 11:21:00,
2013-02-12 05:32:00,24.0,16.0,-100.00,South,170,3.0,3.0,70,-99.99,,,-99.99,,2013-02-12 11:32:00,
2013-02-12 05:41:00,24.0,16.0,-100.00,South,170,3.0,3.0,70,-99.99,,,-99.99,,2013-02-12 11:41:00,
2013-02-12 05:52:00,24.0,16.0,-100.00,South,170,3.0,3.0,70,-99.99,,,-99.99,,2013-02-12 11:52:00,
2013-02-12 06:01:00,24.0,16.0,-100.00,South,170,3.0,3.0,70,-99.99,,,-99.99,,2013-02-12 12:01:00,
2013-02-12 06:11:00,23.0,16.0,-100.00,South,190,6.0,7.0,73,-99.99,,,-99.99,,2013-02-12 12:11:00,
2013-02-12 06:21:00,23.0,16.0,-100.00,South,190,6.0,7.0,73,-99.99,,,-99.99,,2013-02-12 12:21:00,
2013-02-12 06:32:00,24.0,16.0,-100.00,SW,220,5.0,6.0,74,-99.99,,,-99.99,,2013-02-12 12:32:00,
2013-02-12 06:42:00,24.0,16.0,-100.00,SW,220,5.0,6.0,74,-99.99,,,-99.99,,2013-02-12 12:42:00,
2013-02-12 06:52:00,23.0,16.0,-100.00,SSW,195,7.0,7.0,75,-99.99,,,-99.99,,2013-02-12 12:52:00,
2013-02-12 07:01:00,23.0,16.0,-100.00,SSW,195,7.0,7.0,75,-99.99,,,-99.99,,2013-02-12 13:01:00,
2013-02-12 07:11:00,23.0,17.0,-100.00,SSW,195,9.0,10.0,77,-99.99,,,-99.99,,2013-02-12 13:11:00,
2013-02-12 07:22:00,23.0,16.0,-100.00,SSW,200,6.0,7.0,77,-99.99,,,-99.99,,2013-02-12 13:22:00,
2013-02-12 07:32:00,22.0,17.0,-100.00,SW,215,5.0,6.0,79,-99.99,,,-99.99,,2013-02-12 13:32:00,
2013-02-12 07:42:00,22.0,17.0,-100.00,SW,215,5.0,6.0,79,-99.99,,,-99.99,,2013-02-12 13:42:00,
2013-02-12 07:51:00,23.0,17.0,-100.00,SSW,210,4.0,6.0,79,-99.99,,,-99.99,,2013-02-12 13:51:00,
2013-02-12 08:01:00,23.0,17.0,-100.00,SSW,210,4.0,6.0,79,-99.99,,,-99.99,,2013-02-12 14:01:00,
2013-02-12 08:11:00,24.0,18.0,-100.00,SSW,200,4.0,6.0,80,-99.99,,,-99.99,,2013-02-12 14:11:00,
2013-02-12 08:21:00,25.0,19.0,-100.00,South,190,4.0,5.0,80,-99.99,,,-99.99,,2013-02-12 14:21:00,
2013-02-12 08:32:00,25.0,19.0,-100.00,SW,220,6.0,6.0,79,-99.99,,,-99.99,,2013-02-12 14:32:00,
2013-02-12 08:42:00,25.0,19.0,-100.00,SW,220,6.0,6.0,79,-99.99,,,-99.99,,2013-02-12 14:42:00,
2013-02-12 08:52:00,26.0,20.0,-100.00,SW,230,6.0,6.0,78,-99.99,,,-99.99,,2013-02-12 14:52:00,
2013-02-12 09:02:00,26.0,20.0,-100.00,SW,230,6.0,6.0,78,-99.99,,,-99.99,,2013-02-12 15:02:00,
2013-02-12 09:11:00,27.0,20.0,-100.00,SW,225,6.0,8.0,75,-99.99,,,-99.99,,2013-02-12 15:11:00,
2013-02-12 09:21:00,28.0,20.0,-100.00,SSW,205,6.0,8.0,72,-99.99,,,-99.99,,2013-02-12 15:21:00,
2013-02-12 09:32:00,29.0,20.0,-100.00,South,185,12.0,15.0,69,-99.99,,,-99.99,,2013-02-12 15:32:00,
2013-02-12 09:42:00,29.0,20.0,-100.00,South,185,12.0,15.0,69,-99.99,,,-99.99,,2013-02-12 15:42:00,
2013-02-12 09:52:00,30.0,20.0,-100.00,SW,215,9.0,12.0,65,-99.99,,,-99.99,,2013-02-12 15:52:00,
2013-02-12 10:01:00,30.0,20.0,-100.00,SW,215,9.0,12.0,65,-99.99,,,-99.99,,2013-02-12 16:01:00,
2013-02-12 10:11:00,31.0,20.0,-100.00,WSW,240,8.0,9.0,63,-99.99,,,-99.99,,2013-02-12 16:11:00,
2013-02-12 10:22:00,31.0,19.0,-100.00,SW,230,9.0,12.0,61,-99.99,,,-99.99,,2013-02-12 16:22:00,
2013-02-12 10:31:00,33.0,20.0,-100.00,SSW,210,5.0,6.0,58,-99.99,,,-99.99,,2013-02-12 16:31:00,
2013-02-12 10:41:00,33.0,20.0,-100.00,SSW,210,5.0,6.0,58,-99.99,,,-99.99,,2013-02-12 16:41:00,
2013-02-12 10:51:00,33.0,20.0,-100.00,SSW,210,5.0,6.0,58,-99.99,,,-99.99,,2013-02-12 16:51:00,
2013-02-12 11:01:00,33.0,20.0,-100.00,SSW,210,5.0,6.0,58,-99.99,,,-99.99,,2013-02-12 17:01:00,
2013-02-12 11:11:00,35.0,19.0,-100.00,SW,230,9.0,12.0,52,-99.99,,,-99.99,,2013-02-12 17:11:00,
2013-02-12 11:21:00,35.0,18.0,-100.00,WSW,245,12.0,14.0,50,-99.99,,,-99.99,,2013-02-12 17:21:00,
2013-02-12 11:32:00,37.0,18.0,-100.00,SW,230,10.0,12.0,47,-99.99,,,-99.99,,2013-02-12 17:32:00,
2013-02-12 11:42:00,37.0,18.0,-100.00,SW,230,10.0,12.0,47,-99.99,,,-99.99,,2013-02-12 17:42:00,
2013-02-12 11:52:00,38.0,18.0,-100.00,SW,220,7.0,10.0,46,-99.99,,,-99.99,,2013-02-12 17:52:00,
2013-02-12 12:01:00,38.0,18.0,-100.00,SW,220,7.0,10.0,46,-99.99,,,-99.99,,2013-02-12 18:01:00,
2013-02-12 12:11:00,39.0,18.0,-100.00,West,270,9.0,12.0,43,-99.99,,,-99.99,,2013-02-12 18:11:00,
2013-02-12 12:22:00,40.0,18.0,-100.00,SSW,210,11.0,13.0,42,-99.99,,,-99.99,,2013-02-12 18:22:00,
2013-02-12 12:31:00,39.0,17.0,-100.00,SW,225,12.0,14.0,40,-99.99,,,-99.99,,2013-02-12 18:31:00,
2013-02-12 12:51:00,41.0,18.0,-100.00,WSW,255,7.0,12.0,39,-99.99,,,-99.99,,2013-02-12 18:51:00,
2013-02-12 13:02:00,41.0,18.0,-100.00,WSW,255,7.0,12.0,39,-99.99,,,-99.99,,2013-02-12 19:02:00,
2013-02-12 13:11:00,41.0,18.0,-100.00,WSW,255,7.0,12.0,39,-99.99,,,-99.99,,2013-02-12 19:11:00,
2013-02-12 13:21:00,41.0,17.0,-100.00,SW,215,9.0,11.0,38,-99.99,,,-99.99,,2013-02-12 19:21:00,
2013-02-12 13:31:00,41.0,17.0,-100.00,SW,235,11.0,14.0,39,-99.99,,,-99.99,,2013-02-12 19:31:00,